Stündliche Wetter Centralnyy

Heute, 24 Januar, Sonntag

Zeit Temperatur Niederschläge Wind Luftdruck Luftfeuchtigkeit
00:00 -1°C° 0 mm 4 m/S 737 mmHg 93%
01:00 -2°C° 0 mm 4 m/S 737 mmHg 93%
02:00 -2°C° 0 mm 4 m/S 737 mmHg 93%
03:00 -2°C° 0 mm 4 m/S 737 mmHg 93%
04:00 -2°C° 0 mm 4 m/S 736 mmHg 94%
05:00 -2°C° 0 mm 5 m/S 736 mmHg 94%
06:00 -1°C° 0 mm 5 m/S 736 mmHg 95%
07:00 -1°C° 0 mm 4 m/S 736 mmHg 96%
08:00 0°C° 0 mm 4 m/S 736 mmHg 97%
09:00 0°C° 0 mm 4 m/S 735 mmHg 98%
10:00 0°C° 0 mm 4 m/S 735 mmHg 98%
11:00 0°C° 0 mm 4 m/S 734 mmHg 99%
12:00 0°C° 0.1 mm 4 m/S 734 mmHg 99%
13:00 0°C° 0.1 mm 4 m/S 733 mmHg 99%
14:00 0°C° 0.1 mm 4 m/S 732 mmHg 99%
15:00 0°C° 0.7 mm 4 m/S 732 mmHg 99%
16:00 0°C° 0.7 mm 4 m/S 731 mmHg 99%
17:00 0°C° 0.7 mm 4 m/S 731 mmHg 99%
18:00 +1°C° 0.9 mm 3 m/S 731 mmHg 99%
19:00 +1°C° 0.9 mm 3 m/S 730 mmHg 99%
20:00 +1°C° 0.9 mm 3 m/S 730 mmHg 99%
21:00 0°C° 0.8 mm 4 m/S 730 mmHg 99%
22:00 0°C° 0.8 mm 4 m/S 731 mmHg 98%
23:00 0°C° 0.8 mm 5 m/S 731 mmHg 98%

Morgen, 25 Januar, Montag

Zeit Temperatur Niederschläge Wind Luftdruck Luftfeuchtigkeit
00:00 0°C° 0.8 mm 5 m/S 732 mmHg 98%
01:00 -1°C° 0.8 mm 6 m/S 733 mmHg 97%
02:00 -1°C° 0.8 mm 6 m/S 733 mmHg 97%
03:00 -1°C° 0.1 mm 5 m/S 734 mmHg 97%
04:00 -1°C° 0.1 mm 4 m/S 735 mmHg 96%
05:00 -1°C° 0.1 mm 4 m/S 735 mmHg 96%
06:00 -1°C° 0 mm 3 m/S 736 mmHg 96%
07:00 -1°C° 0 mm 3 m/S 737 mmHg 95%
08:00 -1°C° 0 mm 2 m/S 737 mmHg 95%
09:00 -1°C° 0 mm 2 m/S 738 mmHg 95%
10:00 -1°C° 0 mm 2 m/S 738 mmHg 95%
11:00 +2°C° 0 mm 1 m/S 738 mmHg 95%
12:00 +1°C° 0 mm 2 m/S 738 mmHg 94%
13:00 +1°C° 0 mm 2 m/S 738 mmHg 94%
14:00 +1°C° 0 mm 2 m/S 738 mmHg 94%
15:00 +1°C° 0 mm 2 m/S 737 mmHg 94%
16:00 -1°C° 0 mm 2 m/S 737 mmHg 93%
17:00 -1°C° 0 mm 3 m/S 737 mmHg 93%
18:00 -2°C° 0 mm 4 m/S 737 mmHg 93%
19:00 -1°C° 0 mm 4 m/S 736 mmHg 93%
20:00 -1°C° 0 mm 5 m/S 736 mmHg 93%
21:00 -2°C° 0.8 mm 6 m/S 735 mmHg 94%
22:00 -2°C° 0.8 mm 6 m/S 734 mmHg 95%
23:00 -1°C° 0.8 mm 7 m/S 733 mmHg 97%

übermorgen, 26 Januar, Dienstag

Zeit Temperatur Niederschläge Wind Luftdruck Luftfeuchtigkeit
00:00 -1°C° 2 mm 7 m/S 732 mmHg 97%
01:00 -1°C° 2 mm 6 m/S 731 mmHg 97%
02:00 +1°C° 2 mm 6 m/S 730 mmHg 97%
03:00 +1°C° 1.2 mm 6 m/S 730 mmHg 97%
04:00 +1°C° 1.2 mm 5 m/S 729 mmHg 97%
05:00 +1°C° 1.2 mm 5 m/S 728 mmHg 97%
06:00 +1°C° 0.8 mm 5 m/S 728 mmHg 96%
07:00 +1°C° 0.8 mm 5 m/S 728 mmHg 95%
08:00 +1°C° 0.8 mm 5 m/S 728 mmHg 94%
09:00 +1°C° 0.1 mm 4 m/S 728 mmHg 93%
10:00 +1°C° 0.1 mm 3 m/S 728 mmHg 91%
11:00 +2°C° 0.1 mm 2 m/S 728 mmHg 89%
12:00 +2°C° 0.1 mm 2 m/S 728 mmHg 91%
13:00 +1°C° 0.1 mm 2 m/S 728 mmHg 94%
14:00 +1°C° 0.1 mm 2 m/S 728 mmHg 96%
15:00 +1°C° 0.3 mm 2 m/S 728 mmHg 97%
16:00 +1°C° 0.3 mm 1 m/S 729 mmHg 97%
17:00 +1°C° 0.3 mm 1 m/S 729 mmHg 98%
18:00 +1°C° 0.3 mm 1 m/S 729 mmHg 98%
19:00 +1°C° 0.3 mm 1 m/S 730 mmHg 98%
20:00 -1°C° 0.3 mm 2 m/S 730 mmHg 98%
21:00 -1°C° 0.2 mm 3 m/S 730 mmHg 98%
22:00 -2°C° 0.2 mm 4 m/S 731 mmHg 97%
23:00 -2°C° 0.2 mm 5 m/S 731 mmHg 96%

27 Januar, Mittwoch

Zeit Temperatur Niederschläge Wind Luftdruck Luftfeuchtigkeit
00:00 -4°C° 0.4 mm 5 m/S 732 mmHg 96%
01:00 -4°C° 0.4 mm 6 m/S 732 mmHg 95%
02:00 -4°C° 0.4 mm 7 m/S 732 mmHg 95%
03:00 -4°C° 0.5 mm 7 m/S 733 mmHg 95%
04:00 -4°C° 0.5 mm 7 m/S 733 mmHg 95%
05:00 -4°C° 0.5 mm 7 m/S 733 mmHg 95%
06:00 -4°C° 0.4 mm 7 m/S 734 mmHg 94%
07:00 -4°C° 0.4 mm 7 m/S 734 mmHg 94%
08:00 -4°C° 0.4 mm 7 m/S 735 mmHg 94%
09:00 -4°C° 0.3 mm 7 m/S 735 mmHg 94%
10:00 -4°C° 0.3 mm 7 m/S 736 mmHg 94%
11:00 -4°C° 0.3 mm 7 m/S 736 mmHg 94%
12:00 -4°C° 0.2 mm 7 m/S 737 mmHg 94%
13:00 -4°C° 0.2 mm 7 m/S 737 mmHg 94%
14:00 -3°C° 0.2 mm 7 m/S 738 mmHg 93%
15:00 -4°C° 0.2 mm 7 m/S 738 mmHg 93%
16:00 -4°C° 0.2 mm 6 m/S 739 mmHg 92%
17:00 -4°C° 0.2 mm 6 m/S 739 mmHg 92%
18:00 -4°C° 0 mm 6 m/S 740 mmHg 91%
19:00 -4°C° 0 mm 6 m/S 740 mmHg 89%
20:00 -5°C° 0 mm 5 m/S 740 mmHg 88%
21:00 -5°C° 0 mm 5 m/S 741 mmHg 89%
22:00 -5°C° 0 mm 5 m/S 741 mmHg 90%
23:00 -5°C° 0 mm 5 m/S 741 mmHg 91%

28 Januar, Donnerstag

Zeit Temperatur Niederschläge Wind Luftdruck Luftfeuchtigkeit
00:00 -5°C° 0 mm 4 m/S 741 mmHg 92%
01:00 -5°C° 0 mm 4 m/S 742 mmHg 92%
02:00 -5°C° 0 mm 4 m/S 742 mmHg 93%
03:00 -5°C° 0 mm 4 m/S 742 mmHg 93%
04:00 -5°C° 0 mm 3 m/S 742 mmHg 93%
05:00 -5°C° 0 mm 3 m/S 742 mmHg 93%
06:00 -5°C° 0 mm 3 m/S 742 mmHg 94%
07:00 -5°C° 0 mm 3 m/S 742 mmHg 94%
08:00 -5°C° 0 mm 3 m/S 743 mmHg 95%
09:00 -5°C° 0 mm 3 m/S 743 mmHg 94%
10:00 -4°C° 0 mm 3 m/S 743 mmHg 93%
11:00 -4°C° 0 mm 3 m/S 743 mmHg 92%
12:00 -4°C° 0 mm 3 m/S 743 mmHg 91%
13:00 -2°C° 0 mm 3 m/S 742 mmHg 90%
14:00 -2°C° 0 mm 3 m/S 742 mmHg 89%
15:00 -2°C° 0 mm 3 m/S 742 mmHg 89%
16:00 -3°C° 0 mm 2 m/S 742 mmHg 90%
17:00 -3°C° 0 mm 2 m/S 743 mmHg 90%
18:00 -3°C° 0 mm 2 m/S 743 mmHg 90%
19:00 -3°C° 0 mm 2 m/S 743 mmHg 90%
20:00 -4°C° 0 mm 2 m/S 743 mmHg 90%

29 Januar, Freitag

Zeit Temperatur Niederschläge Wind Luftdruck Luftfeuchtigkeit
Mehr zeigen

Wir brauchen deine Erlaubnis

Meteoprog und unser Service Anbieter werden persönliche Daten aufbewahren, so wie Cookies, Geräte Bezeichnung oder ähnliche Technologien von deinem Gerät und Prozess, so wie Persönliche Daten Inhalte und Werbungen, genauso wie social Media und den Verkehr zu analysieren.

  • Aufbewahrung und/oder Zugang zu deiner Geräte Informationen.

    Cookies, Geräte Bezeichnung oder andere Informationen, können aufbewahrt oder Zugang zu deinem Gerät erhalten, für den Grund, der oben angegeben wird.

  • Personalisierte Werbung und Inhalte, Messungen, Einblick in das Publikum und Produkt Entwicklung.

    Werbungen und Inhalte können personalisiert werden, basierend auf ein Profil. Mehr Daten können besser personalisierte Werbungen und Inhalte hinzufügen. Werbung und Inhalte können gezeigt und gemessen werden. Einblicke über das Publikum, welche die Werbung gesehen haben und den Inhalt, können abgeleitet werden. So wie Daten können genutzt werden, um es zu verbessern oder die Benutzer Erfahrung zu verbessern das System und die Software.

Wenn du “Ich stimme zu” klickst, erlaubst du uns, die Cookies zu benutzen die Geräte Bezeichnung, den Web oder ähnliche Technologien zu benutzen. Deine Settings, können in deinem Gerät bei deinem Browser geändert werden.

Für den bestimmten Zweck, berechtigten Interessen beruhen darauf, mehr als auf den Inhalt. Du kannst mehr darüber in unseren Privaten und Cookie Politik lesen.